Time,TemperatureF,DewpointF,PressureIn,WindDirection,WindDirectionDegrees,WindSpeedMPH,WindSpeedGustMPH,Humidity,HourlyPrecipIn,Conditions,Clouds,dailyrainin,SolarRadiationWatts/m^2,SoftwareType,DateUTC
2013-02-19 00:01:00,32.0,32.0,-100.00,SSE,162,0.0,3.0,100,0.00,,,0.00,0.000000,,2013-02-19 08:01:00,
2013-02-19 00:11:00,32.0,32.0,-100.00,SSE,162,0.0,3.0,100,0.00,,,0.00,0.000000,,2013-02-19 08:11:00,
2013-02-19 00:21:00,32.0,32.0,-100.00,SSE,162,0.0,3.0,100,0.00,,,0.00,0.000000,,2013-02-19 08:21:00,
2013-02-19 00:52:00,32.0,32.0,-100.00,NNE,22,0.0,3.0,100,0.00,,,0.00,0.000000,,2013-02-19 08:52:00,
2013-02-19 01:01:00,32.0,32.0,-100.00,NNE,22,0.0,3.0,100,0.00,,,0.00,0.000000,,2013-02-19 09:01:00,
2013-02-19 01:11:00,32.0,32.0,-100.00,NNE,22,0.0,3.0,100,0.00,,,0.00,0.000000,,2013-02-19 09:11:00,
2013-02-19 01:21:00,32.0,32.0,-100.00,NNE,22,0.0,3.0,100,0.00,,,0.00,0.000000,,2013-02-19 09:21:00,
2013-02-19 01:53:00,33.0,33.0,-100.00,ESE,104,0.0,4.0,100,0.00,,,0.00,0.000000,,2013-02-19 09:53:00,
2013-02-19 02:01:00,33.0,33.0,-100.00,ESE,104,0.0,4.0,100,0.00,,,0.00,0.000000,,2013-02-19 10:01:00,
2013-02-19 02:11:00,33.0,33.0,-100.00,ESE,104,0.0,4.0,100,0.00,,,0.00,0.000000,,2013-02-19 10:11:00,
2013-02-19 02:21:00,33.0,33.0,-100.00,ESE,104,0.0,4.0,100,0.00,,,0.00,0.000000,,2013-02-19 10:21:00,
2013-02-19 02:52:00,33.0,33.0,-100.00,SSW,192,0.0,3.0,100,0.00,,,0.00,0.000000,,2013-02-19 10:52:00,
2013-02-19 03:01:00,33.0,33.0,-100.00,SSW,192,0.0,3.0,100,0.00,,,0.00,0.000000,,2013-02-19 11:01:00,
2013-02-19 03:11:00,33.0,33.0,-100.00,SSW,192,0.0,3.0,100,0.00,,,0.00,0.000000,,2013-02-19 11:11:00,
2013-02-19 03:21:00,33.0,33.0,-100.00,SSW,192,0.0,3.0,100,0.00,,,0.00,0.000000,,2013-02-19 11:21:00,
2013-02-19 03:52:00,34.0,25.0,-100.00,NW,323,0.0,7.0,70,0.00,,,0.00,0.000000,,2013-02-19 11:52:00,
2013-02-19 04:01:00,34.0,25.0,-100.00,NW,323,0.0,7.0,70,0.00,,,0.00,0.000000,,2013-02-19 12:01:00,
2013-02-19 04:12:00,34.0,25.0,-100.00,NW,323,0.0,7.0,70,0.00,,,0.00,0.000000,,2013-02-19 12:12:00,
2013-02-19 04:21:00,34.0,25.0,-100.00,NW,323,0.0,7.0,70,0.00,,,0.00,0.000000,,2013-02-19 12:21:00,
2013-02-19 04:52:00,33.0,32.0,-100.00,SW,217,0.0,5.0,95,0.00,,,0.00,0.000000,,2013-02-19 12:52:00,
2013-02-19 05:02:00,33.0,32.0,-100.00,SW,217,0.0,5.0,95,0.00,,,0.00,0.000000,,2013-02-19 13:02:00,
2013-02-19 05:11:00,33.0,32.0,-100.00,SW,217,0.0,5.0,95,0.00,,,0.00,0.000000,,2013-02-19 13:11:00,
2013-02-19 05:22:00,33.0,32.0,-100.00,SW,217,0.0,5.0,95,0.00,,,0.00,0.000000,,2013-02-19 13:22:00,
2013-02-19 05:52:00,32.0,29.0,-100.00,NW,326,0.0,3.0,89,0.00,,,0.00,0.000000,,2013-02-19 13:52:00,
2013-02-19 06:01:00,32.0,29.0,-100.00,NW,326,0.0,3.0,89,0.00,,,0.00,0.000000,,2013-02-19 14:01:00,
2013-02-19 06:11:00,32.0,29.0,-100.00,NW,326,0.0,3.0,89,0.00,,,0.00,0.000000,,2013-02-19 14:11:00,
2013-02-19 06:21:00,32.0,29.0,-100.00,NW,326,0.0,3.0,89,0.00,,,0.00,0.000000,,2013-02-19 14:21:00,
2013-02-19 06:52:00,31.0,26.0,-100.00,North,8,0.0,4.0,81,0.00,,,0.00,0.000000,,2013-02-19 14:52:00,
2013-02-19 07:01:00,31.0,26.0,-100.00,North,8,0.0,4.0,81,0.00,,,0.00,0.000000,,2013-02-19 15:01:00,
2013-02-19 07:11:00,31.0,26.0,-100.00,North,8,0.0,4.0,81,0.00,,,0.00,0.000000,,2013-02-19 15:11:00,
2013-02-19 07:21:00,31.0,26.0,-100.00,North,8,0.0,4.0,81,0.00,,,0.00,0.000000,,2013-02-19 15:21:00,
2013-02-19 07:52:00,31.0,24.0,-100.00,NW,317,0.0,4.0,76,0.00,,,0.00,2.000000,,2013-02-19 15:52:00,
2013-02-19 08:01:00,31.0,24.0,-100.00,NW,317,0.0,4.0,76,0.00,,,0.00,2.000000,,2013-02-19 16:01:00,
2013-02-19 08:11:00,31.0,24.0,-100.00,NW,317,0.0,4.0,76,0.00,,,0.00,2.000000,,2013-02-19 16:11:00,
2013-02-19 08:21:00,31.0,24.0,-100.00,NW,317,0.0,4.0,76,0.00,,,0.00,2.000000,,2013-02-19 16:21:00,
2013-02-19 08:52:00,31.0,23.0,-100.00,ENE,68,0.0,4.0,73,0.00,,,0.00,21.000000,,2013-02-19 16:52:00,
2013-02-19 09:01:00,31.0,23.0,-100.00,ENE,68,0.0,4.0,73,0.00,,,0.00,21.000000,,2013-02-19 17:01:00,
2013-02-19 09:11:00,31.0,23.0,-100.00,ENE,68,0.0,4.0,73,0.00,,,0.00,21.000000,,2013-02-19 17:11:00,
2013-02-19 09:21:00,31.0,23.0,-100.00,ENE,68,0.0,4.0,73,0.00,,,0.00,21.000000,,2013-02-19 17:21:00,
2013-02-19 09:52:00,37.0,22.0,-100.00,SE,143,2.0,5.0,54,0.00,,,0.00,295.000000,,2013-02-19 17:52:00,
2013-02-19 10:01:00,37.0,22.0,-100.00,SE,143,2.0,5.0,54,0.00,,,0.00,295.000000,,2013-02-19 18:01:00,
2013-02-19 10:11:00,37.0,22.0,-100.00,SE,143,2.0,5.0,54,0.00,,,0.00,295.000000,,2013-02-19 18:11:00,
2013-02-19 10:21:00,37.0,22.0,-100.00,SE,143,2.0,5.0,54,0.00,,,0.00,295.000000,,2013-02-19 18:21:00,
2013-02-19 10:52:00,41.0,23.0,-100.00,East,81,3.0,5.0,48,0.00,,,0.00,448.000000,,2013-02-19 18:52:00,
2013-02-19 11:01:00,41.0,23.0,-100.00,East,81,3.0,5.0,48,0.00,,,0.00,448.000000,,2013-02-19 19:01:00,
2013-02-19 11:11:00,41.0,23.0,-100.00,East,81,3.0,5.0,48,0.00,,,0.00,448.000000,,2013-02-19 19:11:00,
2013-02-19 11:21:00,41.0,23.0,-100.00,East,81,3.0,5.0,48,0.00,,,0.00,448.000000,,2013-02-19 19:21:00,
2013-02-19 11:52:00,39.0,23.0,-100.00,NE,44,3.0,7.0,53,0.00,,,0.00,408.000000,,2013-02-19 19:52:00,
2013-02-19 12:01:00,39.0,23.0,-100.00,NE,44,3.0,7.0,53,0.00,,,0.00,408.000000,,2013-02-19 20:01:00,
2013-02-19 12:11:00,39.0,23.0,-100.00,NE,44,3.0,7.0,53,0.00,,,0.00,408.000000,,2013-02-19 20:11:00,
2013-02-19 12:21:00,39.0,23.0,-100.00,NE,44,3.0,7.0,53,0.00,,,0.00,408.000000,,2013-02-19 20:21:00,
2013-02-19 12:52:00,41.0,23.0,-100.00,NNE,32,7.0,9.0,49,0.00,,,0.00,418.000000,,2013-02-19 20:52:00,
2013-02-19 13:01:00,41.0,23.0,-100.00,NNE,32,7.0,9.0,49,0.00,,,0.00,418.000000,,2013-02-19 21:01:00,
2013-02-19 13:11:00,41.0,23.0,-100.00,NNE,32,7.0,9.0,49,0.00,,,0.00,418.000000,,2013-02-19 21:11:00,
2013-02-19 13:21:00,41.0,23.0,-100.00,NNE,32,7.0,9.0,49,0.00,,,0.00,418.000000,,2013-02-19 21:21:00,
2013-02-19 13:52:00,43.0,25.0,-100.00,NNE,24,7.0,11.0,48,0.00,,,-99.99,344.000000,,2013-02-19 21:52:00,
2013-02-19 14:01:00,43.0,25.0,-100.00,NNE,24,7.0,11.0,48,0.00,,,-99.99,344.000000,,2013-02-19 22:01:00,
2013-02-19 14:11:00,43.0,25.0,-100.00,NNE,24,7.0,11.0,48,0.00,,,-99.99,344.000000,,2013-02-19 22:11:00,
2013-02-19 14:21:00,43.0,25.0,-100.00,NNE,24,7.0,11.0,48,0.00,,,-99.99,344.000000,,2013-02-19 22:21:00,
2013-02-19 14:52:00,44.0,23.0,-100.00,NNE,33,7.0,14.0,44,0.00,,,0.00,426.000000,,2013-02-19 22:52:00,
2013-02-19 15:01:00,44.0,23.0,-100.00,NNE,33,7.0,14.0,44,0.00,,,0.00,426.000000,,2013-02-19 23:01:00,
2013-02-19 15:11:00,44.0,23.0,-100.00,NNE,33,7.0,14.0,44,0.00,,,0.00,426.000000,,2013-02-19 23:11:00,
2013-02-19 15:21:00,44.0,23.0,-100.00,NNE,33,7.0,14.0,44,0.00,,,0.00,426.000000,,2013-02-19 23:21:00,
2013-02-19 15:52:00,44.0,25.0,-100.00,NNE,17,7.0,12.0,47,0.00,,,0.00,246.000000,,2013-02-19 23:52:00,
2013-02-19 16:01:00,44.0,25.0,-100.00,NNE,17,7.0,12.0,47,0.00,,,0.00,246.000000,,2013-02-20 00:01:00,
2013-02-19 16:11:00,44.0,25.0,-100.00,NNE,17,7.0,12.0,47,0.00,,,0.00,246.000000,,2013-02-20 00:11:00,
2013-02-19 16:21:00,44.0,25.0,-100.00,NNE,17,7.0,12.0,47,0.00,,,0.00,246.000000,,2013-02-20 00:21:00,
2013-02-19 16:52:00,44.0,23.0,-100.00,NNE,20,5.0,10.0,44,0.00,,,0.00,233.000000,,2013-02-20 00:52:00,
2013-02-19 17:02:00,44.0,23.0,-100.00,NNE,20,5.0,10.0,44,0.00,,,0.00,233.000000,,2013-02-20 01:02:00,
2013-02-19 17:11:00,44.0,23.0,-100.00,NNE,20,5.0,10.0,44,0.00,,,0.00,233.000000,,2013-02-20 01:11:00,
2013-02-19 17:21:00,44.0,23.0,-100.00,NNE,20,5.0,10.0,44,0.00,,,0.00,233.000000,,2013-02-20 01:21:00,
2013-02-19 17:52:00,43.0,27.0,-100.00,NNE,23,0.0,7.0,53,0.00,,,0.00,75.000000,,2013-02-20 01:52:00,
2013-02-19 18:01:00,43.0,27.0,-100.00,NNE,23,0.0,7.0,53,0.00,,,0.00,75.000000,,2013-02-20 02:01:00,
2013-02-19 18:11:00,43.0,27.0,-100.00,NNE,23,0.0,7.0,53,0.00,,,0.00,75.000000,,2013-02-20 02:11:00,
2013-02-19 18:21:00,43.0,27.0,-100.00,NNE,23,0.0,7.0,53,0.00,,,0.00,75.000000,,2013-02-20 02:21:00,
2013-02-19 18:52:00,40.0,27.0,-100.00,NE,42,2.0,6.0,60,0.00,,,0.00,2.000000,,2013-02-20 02:52:00,
2013-02-19 19:01:00,40.0,27.0,-100.00,NE,42,2.0,6.0,60,0.00,,,0.00,2.000000,,2013-02-20 03:01:00,
2013-02-19 19:12:00,40.0,27.0,-100.00,NE,42,2.0,6.0,60,0.00,,,0.00,2.000000,,2013-02-20 03:12:00,
2013-02-19 19:21:00,40.0,27.0,-100.00,NE,42,2.0,6.0,60,0.00,,,0.00,2.000000,,2013-02-20 03:21:00,
2013-02-19 19:52:00,36.0,27.0,-100.00,NNE,21,1.0,7.0,70,0.00,,,0.00,0.000000,,2013-02-20 03:52:00,
2013-02-19 20:01:00,36.0,27.0,-100.00,NNE,21,1.0,7.0,70,0.00,,,0.00,0.000000,,2013-02-20 04:01:00,
2013-02-19 20:11:00,36.0,27.0,-100.00,NNE,21,1.0,7.0,70,0.00,,,0.00,0.000000,,2013-02-20 04:11:00,
2013-02-19 20:21:00,36.0,27.0,-100.00,NNE,21,1.0,7.0,70,0.00,,,0.00,0.000000,,2013-02-20 04:21:00,
2013-02-19 20:52:00,37.0,27.0,-100.00,South,169,0.0,5.0,67,0.00,,,0.00,0.000000,,2013-02-20 04:52:00,
2013-02-19 21:02:00,37.0,27.0,-100.00,South,169,0.0,5.0,67,0.00,,,0.00,0.000000,,2013-02-20 05:02:00,
2013-02-19 21:12:00,37.0,27.0,-100.00,South,169,0.0,5.0,67,0.00,,,0.00,0.000000,,2013-02-20 05:12:00,
2013-02-19 21:22:00,37.0,27.0,-100.00,South,169,0.0,5.0,67,0.00,,,0.00,0.000000,,2013-02-20 05:22:00,
2013-02-19 21:52:00,34.0,24.0,-100.00,North,359,0.0,5.0,67,0.00,,,0.00,0.000000,,2013-02-20 05:52:00,
2013-02-19 22:01:00,34.0,24.0,-100.00,North,359,0.0,5.0,67,0.00,,,0.00,0.000000,,2013-02-20 06:01:00,
2013-02-19 22:11:00,34.0,24.0,-100.00,North,359,0.0,5.0,67,0.00,,,0.00,0.000000,,2013-02-20 06:11:00,
2013-02-19 22:21:00,34.0,24.0,-100.00,North,359,0.0,5.0,67,0.00,,,0.00,0.000000,,2013-02-20 06:21:00,
2013-02-19 22:52:00,34.0,25.0,-100.00,North,355,0.0,2.0,69,0.00,,,0.00,0.000000,,2013-02-20 06:52:00,
2013-02-19 23:01:00,34.0,25.0,-100.00,North,355,0.0,2.0,69,0.00,,,0.00,0.000000,,2013-02-20 07:01:00,
2013-02-19 23:11:00,34.0,25.0,-100.00,North,355,0.0,2.0,69,0.00,,,0.00,0.000000,,2013-02-20 07:11:00,
2013-02-19 23:21:00,34.0,25.0,-100.00,North,355,0.0,2.0,69,0.00,,,0.00,0.000000,,2013-02-20 07:21:00,
2013-02-19 23:52:00,32.0,24.0,-100.00,NNE,30,0.0,4.0,71,0.00,,,0.00,0.000000,,2013-02-20 07:52:00,